Location: downtown San Diego
(32.7310°N, 117.1990°W)
Time: 19:29:47
(UTC-07:00)

Cosmos 1743 Rocket - Pass Details

Date: 12 July 2018
Orbit: 604 x 633 km, 82.6° (Epoch: 23 September)

Event Time Altitude Azimuth Distance (km) Brightness Sun altitude
Exits shadow 20:52:05 11° 152° (SSE) 1,944 5.6 -10.5°
Maximum altitude 20:55:52 32° 91° (E) 1,083 4.4 -11.1°
Drops below altitude 10° 20:59:50 10° 28° (NNE) 2,016 6.3 -11.8°
Sets 21:02:15 0° 18° (NNE) 2,929 7.3 -12.2°
